Flag for U.S.A. Weather past 2 weeks in San Jose, California, U.S.A.

Now
61 °F

Passing clouds.


Feels Like: 61 °F
Forecast: 59 / 72 °F
Wind: 3 mph from South

Location: San Jose International Airport

Current Time: Sep 3, 2015 at 8:25:09 AM

Latest Report: Sep 3, 2015 at 7:53 AM


Visibility: 10 mi

Pressure: 29.94 "Hg

Humidity: 78%

Dew point: 54 °F

Location of San JoseLocation

Historic Weather in San Jose — Graph

°F

San Jose temperature yesterday

Maximum temperature yesterday: 76 °F (at 1:53 PM)
Minimum temperature yesterday: 58 °F (at 4:53 AM)
Average temperature yesterday: 66 °F

Past Weeks' High & Low Weather Summary

 TemperatureHumidityPressure
High94 °F (Aug 28, 2:53 PM)94% (Aug 29, 4:00 AM)30.06 "Hg (Aug 29, 4:00 AM)
Low58 °F (Sep 2, 4:53 AM)18% (Aug 27, 2:53 PM)29.82 "Hg (Aug 28, 3:53 PM)
Average69 °F67%29.94 "Hg
* Reported Aug 19 6:53 AM — Sep 3 6:53 AM, San Jose, Weather by CustomWeather, © 2015

Note: Actual official high and low records may vary slightly from our data, if they occured in-between our weather recording intervals... More about our weather records

Advertising

San Jose weather history for previous 24 hours

 ConditionsComfort  
Time TempWeatherWind HumidityBarometerVisibility
6:53 AM
Thu, Sep 3
59 °FPassing clouds.No wind81%29.92 "Hg10 mi
5:53 AM58 °FPassing clouds.3 mph84%29.91 "Hg10 mi
4:53 AM59 °FClear.3 mph84%29.91 "Hg10 mi
3:53 AM59 °FClear.3 mph84%29.91 "Hg10 mi
2:53 AM61 °FClear.3 mph81%29.91 "Hg10 mi
1:53 AM61 °FClear.3 mph75%29.91 "Hg10 mi
12:53 AM63 °FClear.No wind73%29.92 "Hg10 mi
11:53 PM
Wed, Sep 2
65 °FPassing clouds.3 mph68%29.92 "Hg10 mi
10:53 PM65 °FPassing clouds.6 mph70%29.92 "Hg10 mi
9:53 PM64 °FPassing clouds.3 mph73%29.93 "Hg10 mi
8:53 PM65 °FPassing clouds.7 mph76%29.92 "Hg10 mi
7:53 PM67 °FPassing clouds.12 mph71%29.91 "Hg10 mi
6:53 PM69 °FPassing clouds.17 mph66%29.90 "Hg10 mi
5:53 PM71 °FPassing clouds.18 mph63%29.90 "Hg10 mi
4:53 PM73 °FPassing clouds.17 mph59%29.90 "Hg10 mi
3:53 PM74 °FPassing clouds.18 mph56%29.90 "Hg10 mi
2:53 PM76 °FPassing clouds.17 mph50%29.92 "Hg10 mi
1:53 PM76 °FLight rain. Passing clouds.15 mph48%29.93 "Hg10 mi
12:53 PM74 °FPassing clouds.No wind52%29.94 "Hg10 mi
11:53 AM71 °FPassing clouds.No wind57%29.96 "Hg10 mi
10:53 AM68 °FPassing clouds.3 mph63%29.97 "Hg10 mi
9:53 AM65 °FBroken clouds.3 mph70%29.96 "Hg10 mi
8:53 AM62 °FBroken clouds.5 mph80%29.96 "Hg10 mi
Weather by CustomWeather, © 2015

See weather overviewHow to use our weather pages